sat.trackr.live / text

‹ back to catalog

STARLINK-35603

NORAD 66141 · 2025-237AD

PAYLOAD ACTIVE UNKNOWN

§ Identity

Operator
Country
US
Launch date
2025-10-22
Launch site
AFWTR
Launch vehicle
Mass (kg)
RCS (m²)

Purposes: comms

External: N2YO · Heavens-Above · Gunter

§ Orbital elements

Epoch: 2026-05-25T00:37:07.646016Z

Period
94.10 min
Inclination
53.1587°
Eccentricity
0.0001055
Mean motion
15.30208080 rev/d
Perigee alt
474.5 km
Apogee alt
475.9 km
Semi-major
6,853.3 km
B*
4.2634e-4
RAAN
45.3455°
Arg perigee
95.4357°
Mean anomaly
264.6764°
Rev number
3,429

§ Raw data

STARLINK-356031 66141U 25237AD  26145.02578294  .00012292  00000+0  42634-3 0  99992 66141  53.1587  45.3455 0001055  95.4357 264.6764 15.30208080 34299

JSON: /api/v1/satellites/66141 · /tle

For live sub-satellite position, see the globe view (requires WebGL).

§ Visibility from observer

Set your observer location to see the next 7 days of passes ≥ 10°. The values pass through the URL so the page stays shareable.

No JS? Fill the form by hand. The geolocation button needs JavaScript.